Regional Weather Roundup
Issued by NWS

Home | Current Version | Previous Version | Text Only | Print | Product List | Glossary On
Versions: 1 2 3 4 5 6 7 8 9 10 11 12 13 14 15 16 17 18 19 20 21 22 23 24 25 26 27 28 29 30 31 32 33 34 35 36 37 38 39 40 41 42 43 44 45 46 47 48 49 50
000
ASUS44 KOUN 201110
RWROK

WEATHER ROUNDUP FOR OKLAHOMA
NATIONAL WEATHER SERVICE NORMAN OK
600 AM CDT MON OCT 20 2014

NOTE: "FAIR" INDICATES FEW OR NO CLOUDS BELOW 12,000 FEET WITH NO
      SIGNIFICANT WEATHER AND/OR OBSTRUCTIONS TO VISIBILITY.

OKZ001>007-009>012-014-015-017-201200-
NORTHWEST OKLAHOMA AND THE PANHANDLE

CITY           SKY/WX    TMP DP  RH WIND       PRES   REMARKS
GAGE           CLEAR     56  56 100 S7        30.03S FOG
ENID/WOODRING  MOCLDY    55  55 100 S5        30.00S FOG
$$

OKZ016-021>023-033>039-044-045-201200-
SOUTHWEST OKLAHOMA

CITY           SKY/WX    TMP DP  RH WIND       PRES   REMARKS
LAWTON/REGL    CLEAR     54  51  90 CALM      30.05S
LAWTON/FT SILL CLEAR     56  55  97 CALM      30.04R
FREDERICK      CLEAR     58  55  90 SE5       30.02S
CLINTON        CLOUDY    60  57  89 S13       30.05S FOG
HOBART         MOCLDY    60  57  89 S10       30.05R
ALTUS AFB      MOCLDY    57  57 100 CALM      30.04S
$$

OKZ018>020-024>031-201200-
CENTRAL OKLAHOMA

CITY           SKY/WX    TMP DP  RH WIND       PRES   REMARKS
OKLAHOMA CITY  PTCLDY    56  52  86 S7        30.04R
OKC/WILEY POST CLOUDY    61  55  81 SW13      30.03S
OKC/TINKER AFB CLEAR     56  52  85 S8        30.04R
STILLWATER     MOCLDY    57  52  83 S3        30.02R
GUTHRIE        CLEAR     61  55  81 SW8       30.02R
$$

OKZ008-013-054>072-201200-
NORTHEAST OKLAHOMA

CITY           SKY/WX    TMP DP  RH WIND       PRES   REMARKS
TULSA          CLOUDY    57  55  93 SE8       30.03R
TULSA/JONES    MOCLDY    58  53  84 CALM      30.05R
PONCA CITY     PTCLDY    60  54  80 S3        30.02R
BARTLESVILLE   LGT RAIN  57  55  93 SE5       30.04S
MUSKOGEE       PTCLDY    55  52  89 SE3       30.06R
$$

OKZ032-040>043-046>053-073>077-201200-
SOUTH CENTRAL/SOUTHEAST OKLAHOMA

CITY           SKY/WX    TMP DP  RH WIND       PRES   REMARKS
ARDMORE/DWNTWN CLEAR     52  50  93 CALM      30.06S
MCALESTER      MOCLDY    56  50  80 CALM      30.06R
$$



USA.gov is the U.S. government's official web portal to all federal, state and local government web resources and services.